• Processing (Info)

  • MPEC 2016-A111: 2016 AY65

    The following Minor Planet Electronic Circular may be linked-to from your own Web pages, but must not otherwise be redistributed electronically.

    A form allowing access to any MPEC is at the bottom of this page.


    Read MPEC 2016-A110 Read MPEC 2016-A112


    M.P.E.C. 2016-A111                               Issued 2016 Jan. 11, 14:27 UT
    
         The Minor Planet Electronic Circulars contain information on unusual
             minor planets and routine data on comets.  They are published
        on behalf of Division F of the International Astronomical Union by the
              Minor Planet Center, Smithsonian Astrophysical Observatory,
                              Cambridge, MA 02138, U.S.A.
    
                 Prepared using the Tamkin Foundation Computer Network
    
                                  MPC@CFA.HARVARD.EDU
                URL https://www.minorplanetcenter.net/    ISSN 1523-6714
    
                                       2016 AY65
    
    Observations:
         K16A65Y* C2016 01 09.42694 08 05 27.297+06 36 42.16         21.5 wLEA111F51
         K16A65Y  C2016 01 09.44109 08 05 28.042+06 37 26.53         21.5 wLEA111F51
         K16A65Y  C2016 01 09.45519 08 05 28.789+06 38 09.98         21.5 wLEA111F51
         K16A65Y  C2016 01 09.46934 08 05 29.507+06 38 54.36         21.4 wLEA111F51
         K16A65Y KC2016 01 10.38523 08 06 37.43 +07 26 16.4          20.5 RoEA111291
         K16A65Y KC2016 01 10.38748 08 06 37.56 +07 26 23.6          20.4 RoEA111291
         K16A65Y KC2016 01 10.38973 08 06 37.66 +07 26 30.4          20.5 RoEA111291
         K16A65Y  C2016 01 10.40377 08 06 38.36 +07 27 14.8          21.1 RoEA111926
         K16A65Y  C2016 01 10.41155 08 06 38.82 +07 27 38.1          21.1 RoEA111926
         K16A65Y  C2016 01 10.41934 08 06 39.20 +07 28 02.6          21.3 RoEA111926
         K16A65Y  C2016 01 11.33194 08 07 47.70 +08 15 27.6          21.4 RoEA111926
         K16A65Y  C2016 01 11.34068 08 07 48.13 +08 15 55.2          21.8 RoEA111926
         K16A65Y  C2016 01 11.34791 08 07 48.49 +08 16 17.9          20.9 RoEA111926
    
    Observer details:
    291 LPL/Spacewatch II.  Observer R. A. Mastaler.  1.8-m f/2.7 reflector + CCD.
    926 Tenagra II Observatory.  Observers M. Schwartz, P. R. Holvorcem.  Measurer
        M. Schwartz.  0.41-m f/3.75 astrograph + CCD, 0.81-m f/7 Ritchey-Chretien
        + CCD.
    F51 Pan-STARRS 1, Haleakala.  Observers B. Gibson, T. Goggia, N. Primak,
        A. Schultz, M. Willman.  Measurers K. Chambers, S. Chastel, L. Denneau,
        H. Flewelling, M. Huber, E. Lilly, E. Magnier, R. Wainscoat, C. Waters,
        R. Weryk.  1.8-m Ritchey-Chretien + CCD.
    
    Orbital elements:
    2016 AY65                                                Earth MOID = 0.1333 AU
    Epoch 2016 Jan. 13.0 TT = JDT 2457400.5                 MPC
    M  15.14676              (2000.0)            P               Q
    n   0.52971795     Peri.  321.79579     +0.06394831     -0.99303305
    a   1.5127701      Node   124.32636     +0.94255904     +0.02751770
    e   0.2730961      Incl.    6.88329     +0.32786135     +0.11457810
    P   1.86           H   24.5           G   0.15           U   7
    Residuals in seconds of arc
    160109 F51  0.0   0.0     160110 291  0.2+  0.2+    160111 926  0.1+  0.3-
    160109 F51  0.0   0.2+    160110 291  0.1-  0.0     160111 926  0.1-  0.1+
    160109 F51  0.1+  0.3-    160110 926  0.2-  0.4+    160111 926  0.1-  0.2+
    160109 F51  0.1-  0.0     160110 926  0.5+  0.5-
    160110 291  0.0   0.0     160110 926  0.2-  0.1-
    
    Ephemeris:
    2016 AY65                a,e,i = 1.51, 0.27, 7                   q = 1.0996
    Date    TT    R. A. (2000) Decl.     Delta      r     Elong.  Phase     V
    2015 12 12    07 13 27.4 -11 50 50   0.1565  1.1000   134.5    39.7    22.3
    ...
    2015 12 27    07 44 38.7 -04 07 03   0.1425  1.1041   145.7    30.1    21.8
    ...
    2016 01 04    07 57 56.8 +02 00 16   0.1413  1.1123   154.3    22.6    21.6
    ...
    2016 01 10    08 06 09.5 +07 06 39   0.1441  1.1211   161.6    16.1    21.4
    2016 01 11    08 07 23.4 +07 58 35   0.1449  1.1227   162.9    14.9    21.4
    2016 01 12    08 08 35.1 +08 50 28   0.1458  1.1244   164.2    13.8    21.4
    ...
    2016 01 18    08 15 06.3 +13 54 42   0.1535  1.1360   171.9     7.0    21.2
    ...
    2016 01 26    08 22 30.0 +19 55 50   0.1699  1.1543   177.9     1.8    21.2
    ...
    2016 02 10    08 34 48.1 +27 38 08   0.2191  1.1965   161.5    15.1    22.4
    
    A. U. Tomatic                (C) Copyright 2016 MPC           M.P.E.C. 2016-A111
    

    Read MPEC 2016-A110 Read MPEC 2016-A112


    MPEC number:

    Enter an MPEC number in one of the following forms:

    • 1997-B01 (the full form)
    • J97B01 (the packed version of the full form)
    • B01 (the abbreviated form)